Regional Weather Roundup
Issued by NWS New Orleans/Baton Rouge, LA

Home | Current Version | Previous Version | Text Only | Print | Product List | Glossary On
Versions: 1 2 3 4 5 6 7 8 9 10 11 12 13 14 15 16 17 18 19 20 21 22 23 24 25 26 27 28 29 30 31 32 33 34 35 36 37 38 39 40 41 42 43 44 45 46 47 48 49 50
000
ASUS44 KLIX 300210
RWRLIX
NEW ORLEANS REGIONAL WEATHER ROUNDUP
NATIONAL WEATHER SERVICE NEW ORLEANS LA
900 PM CDT SAT AUG 29 2015

NOTE: "FAIR" INDICATES FEW OR NO CLOUDS BELOW 12,000 FEET WITH NO
      SIGNIFICANT WEATHER AND/OR OBSTRUCTIONS TO VISIBILITY.
      SKY/WX - SKY CONDITION AND SIGNIFICANT WEATHER.
      TMP - AIR TEMPERATURE.     DP    - DEWPOINT TEMPERATURE.
      RH  - RELATIVE HUMIDITY.   PRES  - PRESSURE.
      HI  - HEAT INDEX.          WCI   - WIND CHILL INDEX.

*  THESE STATIONS ARE NOT NWS OR FAA STATIONS AND ARE NOT UNDER
   NWS QUALITY CONTROL.

LAZ038-040-048-061>063-065>067-069-300300-
SOUTHEAST LOUISIANA

CITY           SKY/WX    TMP DP  RH WIND       PRES   REMARKS
N.O. AUDUBON     N/A     82  70  67 MISG        N/A
N.O. INTL ARPT MOCLDY    82  67  60 S7        30.00R
N.O. LAKEFRONT PTCLDY    79  66  64 S8        30.01R
N.O. DOWNTOWN*   N/A     84  68  58 S8        30.02R
RESERVE*         N/A     80  70  71 SE7       30.00R
SLIDELL        PTCLDY    75  71  87 CALM      30.00R
BATON ROUGE    CLEAR     78  68  71 E3        29.99R
BOOTHVILLE     CLEAR     80  70  71 SE3       30.02R
BELLE CHASSE   MOCLDY    74  70  87 CALM      30.00R
BOGALUSA*      NOT AVBL
GALLIANO*      CLEAR     75  68  78 CALM      30.01R
NEW ROADS*       N/A     77  66  68 CALM      29.99R
GONZALES*        N/A     75  71  89 CALM      29.98S
HAMMOND*       CLEAR     79  66  65 CALM      30.02R
HOUMA*         CLEAR     77  69  77 CALM      30.01R
PORT FOURCHON* CLEAR     84  66  54 S5        30.02R

$$

MSZ070-080>082-300300-
SOUTHERN MISSISSIPPI

CITY           SKY/WX    TMP DP  RH WIND       PRES   REMARKS
MCCOMB         PTCLDY    77  66  68 CALM      30.01R
GULFPORT       PTCLDY    78  70  76 CALM      30.01R
BILOXI         MOCLDY    81  68  63 S3        30.02R
PASCAGOULA     MOCLDY    74  72  93 CALM      30.03R

$$

COASTAL OBSERVATIONS
LAKE AND NEARSHORE STATIONS

STATION/POSITION TIME  TEMP    WIND        PRES    WAVE
                       AIR SEA DIR/SP/G            HT/PER
                 (UTC) (F)     (DEG/KT/KT) (MB)    (FT/S)

OFFSHORE STATIONS

STATION/POSITION TIME  TEMP    WIND        PRES    WAVE
                       AIR SEA DIR/SP/G            HT/PER
                 (UTC) (F)     (DEG/KT/KT) (MB)    (FT/S)
64 S DAUPHIN ISL 0150   83 86  140/  2/  2 1016.8    2/ 6

$$



USA.gov is the U.S. government's official web portal to all federal, state and local government web resources and services.